CZ-6A DEB

Satellite information

Favourite Embed

Satellite Type and Status

DEBRISIN ORBIT

Key statistics

Satellite CZ-6A DEB at a glance.

Uptime

1080

Days in orbit

Revolutions

≈ 14.9

Per day

Orbit

SSO

Sun Synchronous Orbit

Inclination

99.1

Latest

Satellite identification and parameters

Extended collection of information and parameters for CZ-6A DEB.

Object identification

Identified? True

Debris? True

Object name: CZ-6A DEB

International designator: 2022-151SL

Object number (NORAD): 54947

Object ID (CCSDS): 54947

Country: PEOPLES REPUBLIC OF CHINA (PRC)

Current information (Y/N): Y

RCS size: SMALL

Orbital parameters

Period: 96.388 minutes

Inclination: 99.1152 deg

SMA: 6963.753 km

Apoapsis: 634.06 km

Periapsis: 537.175 km

RAAN: 72.5953 deg

Eccentricy: 0.00695637

Argument of periapsis: 256.0175 deg

Mean anomaly: 103.3298 deg

Mean motion: 14.93955758 rev/day

Mean motion (dot): 0.00064744 rev/day2

B* drag term: 0.0057555065 1/REarth

Two-line elements (TLE)

Creation date: Oct. 25, 2025, 3:11 a.m.

Reference frame: TEME

Reference center: EARTH

Epoch: Oct. 24, 2025, 7:33 p.m. UTC

TLE line 0: 0 CZ-6A DEB

TLE line 1: 1 54947U 22151SL 25297.81501357 .00064744 00000-0 57555-2 0 9999

TLE line 2: 2 54947 99.1152 72.5953 0069564 256.0175 103.3298 14.93955758156863

Live tracking on map

Real-time ground track for satellite CZ-6A DEB.

In-orbit conjunctions

A list of the most updated potential collisions computed for object CZ-6A DEB.

Target Orbit TCA Probability of collision Miss distance Type
OBJECT G SSO 2025-09-11 14:58:09 0.0001585563 140.0 (m) UNKNOWN
ORBVIEW 1 (MICROLAB) LEO 2025-06-22 19:10:49 0.0002214267 357.0 (m) PAYLOAD
METEOR 2-8 DEB LEO 2024-11-09 19:58:03 0.0001610451 437.0 (m) DEBRIS

Associated space launch

Chinese satellite reported for atmospheric/ocean/environmental/spatial parameter research purposes, details TBD.

CZ-6A DEB was lifted into orbit during the mission ‘Long March 6A | Yunhai 3’, on board a Long March 6A space rocket.

The launch took place on Nov. 11, 2022, 10:52 p.m. from Launch Complex 9A.

For more information about the launch, click the button.

Launch to space Long March 6A | Yunhai 3
Long March 6A | Yunhai 3

Agency: N/A

Status: Launch Successful

Launch date: Nov. 11, 2022, 10:52 p.m. UTC

Rocket: Long March 6A

Launch pad: Launch Complex 9A

Location: Taiyuan Satellite Launch Center, People's Republic of China

...

Latest news about this satellite

There are no fresh news available about this satellite. Check back as we update our databases every day.


Newsletter sign-up

Weekly statistics, charts and insights to help you stay on top of the space industry.